Terug naar catalogus

STARLINK-31990

ActiefCommunicatieVLEO
NORAD 60024·PAYLOAD·🇺🇸 United States

Gelanceerd Jun 8, 2024 vanaf Cape Canaveral Space Force Station

Loading…

Volgende Passages (komende 24 uur)

TLE

VersSource: CelesTrak SupGP

Epoch: Sep 14, 2026, 20:34 UTC

1 60024C 24111J   26257.85743056  .00033053  00000+0  97694-3 0  2579
2 60024  53.1568 275.9013 0001150  88.4692 173.2066 15.34361734    16

Volg STARLINK-31990 in realtime met AllMySat

Download on the App Store